W0WC Weather Reports


time (UTC)temp
C
wind
direction
speed
KPH
gust
KPH
rain 1hr
cm
rain 24hr
cm
rain mn
cm
humidity
%
barometer
mb
20260901014857 31 12 0.0 0.0 0.00 0.00 0.00 42 1015.7
20260901014354 31 12 0.0 0.0 0.00 0.00 0.00 42 1015.6
20260901013849 31 11 0.0 0.0 0.00 0.00 0.00 42 1015.6
20260901013344 31 12 0.0 0.0 0.00 0.00 0.00 41 1015.5
20260901012840 31 11 0.0 0.0 0.00 0.00 0.00 40 1015.4
20260901012335 32 13 0.0 0.0 0.00 0.00 0.00 40 1015.4
20260901011831 32 14 0.0 0.0 0.00 0.00 0.00 39 1015.4
20260901011327 32 13 0.0 0.0 0.00 0.00 0.00 38 1015.2
20260901010825 33 13 0.0 0.0 0.00 0.00 0.00 38 1015.5
20260901010320 33 14 0.0 0.0 0.00 0.00 0.00 37 1015.2
20260901005818 33 10 0.0 0.0 0.00 0.00 0.00 36 1015.3
20260901005314 33 6 0.0 0.0 0.00 0.00 0.00 36 1015.1
20260901004814 34 10 0.0 0.0 0.00 0.00 0.00 35 1015.2
20260901004308 35 9 0.0 0.0 0.00 0.00 0.00 34 1015.0
20260901003803 35 7 0.0 0.0 0.00 0.00 0.00 33 1015.1
20260901003258 35 179 3.2 4.8 0.00 0.00 0.00 32 1015.3
20260901002756 35 10 0.0 0.0 0.00 0.00 0.00 32 1015.0
20260901002252 36 4 1.6 1.6 0.00 0.00 0.00 32 1015.2
20260901001747 36 7 3.2 3.2 0.00 0.00 0.00 31 1015.2
20260901001242 36 26 1.6 3.2 0.00 0.00 0.00 31 1015.0
20260901000737 36 210 4.8 6.4 0.00 0.00 0.00 31 1015.1
20260901000233 36 295 3.2 4.8 0.00 0.00 0.00 30 1015.0
20260831235731 36 27 1.6 1.6 0.00 0.00 0.00 30 1015.0
20260831235227 37 214 3.2 9.7 0.00 0.00 0.00 30 1015.1
20260831234728 37 225 4.8 4.8 0.00 0.00 0.00 30 1014.9
20260831234227 37 227 6.4 9.7 0.00 0.00 0.00 29 1015.1
20260831233722 37 200 9.7 11.3 0.00 0.00 0.00 29 1015.1
20260831233218 37 222 11.3 14.5 0.00 0.00 0.00 29 1015.0
20260831232718 37 241 4.8 4.8 0.00 0.00 0.00 29 1015.0
20260831232214 38 95 1.6 3.2 0.00 0.00 0.00 28 1015.0
20260831231705 38 22 3.2 3.2 0.00 0.00 0.00 28 1015.0
20260831231201 38 312 3.2 4.8 0.00 0.00 0.00 28 1015.0
20260831230700 38 349 3.2 4.8 0.00 0.00 0.00 28 1015.0
20260831230156 38 270 3.2 3.2 0.00 0.00 0.00 28 1015.0
20260831225655 38 340 3.2 4.8 0.00 0.00 0.00 28 1015.0
20260831225150 38 216 14.5 16.1 0.00 0.00 0.00 28 1015.0
20260831224645 38 268 1.6 3.2 0.00 0.00 0.00 28 1015.3
20260831224146 37 251 3.2 3.2 0.00 0.00 0.00 29 1015.1
20260831223641 38 0 3.2 4.8 0.00 0.00 0.00 28 1015.0
20260831223138 38 176 11.3 14.5 0.00 0.00 0.00 28 1015.1
20260831222633 38 197 6.4 6.4 0.00 0.00 0.00 28 1015.2
20260831222128 38 107 3.2 3.2 0.00 0.00 0.00 28 1015.1
20260831221624 38 17 3.2 4.8 0.00 0.00 0.00 29 1015.2
20260831221119 38 235 11.3 16.1 0.00 0.00 0.00 29 1015.4
20260831220614 38 193 4.8 6.4 0.00 0.00 0.00 28 1015.1
20260831220109 38 356 1.6 1.6 0.00 0.00 0.00 28 1015.2
20260831215605 38 95 4.8 6.4 0.00 0.00 0.00 28 1015.2
20260831215055 38 230 6.4 9.7 0.00 0.00 0.00 29 1015.3
20260831214552 38 188 4.8 4.8 0.00 0.00 0.00 29 1015.5
20260831214048 38 82 8.0 9.7 0.00 0.00 0.00 29 1015.6
20260831213544 38 327 4.8 9.7 0.00 0.00 0.00 28 1015.6
20260831213039 38 12 3.2 4.8 0.00 0.00 0.00 29 1015.6
20260831212535 37 49 1.6 3.2 0.00 0.00 0.00 30 1015.4
20260831212031 38 152 6.4 6.4 0.00 0.00 0.00 29 1015.6
20260831211525 38 210 4.8 4.8 0.00 0.00 0.00 29 1015.6
20260831211024 38 281 14.5 16.1 0.00 0.00 0.00 28 1015.8
20260831210520 38 314 3.2 4.8 0.00 0.00 0.00 29 1015.7
20260831210016 38 39 4.8 11.3 0.00 0.00 0.00 29 1015.7
20260831205511 39 27 3.2 3.2 0.00 0.00 0.00 29 1015.7
20260831205007 37 344 1.6 3.2 0.00 0.00 0.00 30 1015.8
20260831204507 38 53 6.4 9.7 0.00 0.00 0.00 30 1015.7
20260831204005 37 352 3.2 4.8 0.00 0.00 0.00 30 1015.9
20260831203505 37 265 6.4 9.7 0.00 0.00 0.00 30 1016.0
20260831203003 38 200 12.9 16.1 0.00 0.00 0.00 29 1016.1
20260831202458 37 55 3.2 3.2 0.00 0.00 0.00 30 1016.1
20260831201957 38 215 6.4 6.4 0.00 0.00 0.00 29 1016.3
20260831201456 38 65 6.4 6.4 0.00 0.00 0.00 29 1016.2
20260831200953 38 228 12.9 16.1 0.00 0.00 0.00 28 1016.4
20260831200448 37 332 4.8 4.8 0.00 0.00 0.00 29 1016.4
20260831195948 37 172 16.1 24.1 0.00 0.00 0.00 28 1016.5
20260831195443 38 109 4.8 4.8 0.00 0.00 0.00 28 1016.7
20260831194938 38 181 14.5 17.7 0.00 0.00 0.00 27 1016.6
20260831194434 38 51 1.6 1.6 0.00 0.00 0.00 27 1016.6
20260831193933 37 177 9.7 12.9 0.00 0.00 0.00 28 1016.6
20260831193428 37 282 6.4 9.7 0.00 0.00 0.00 29 1016.6
20260831192923 37 258 11.3 16.1 0.00 0.00 0.00 28 1016.7
20260831192419 37 218 9.7 12.9 0.00 0.00 0.00 29 1016.6
20260831191914 37 220 8.0 14.5 0.00 0.00 0.00 29 1016.9
20260831191410 37 180 9.7 16.1 0.00 0.00 0.00 29 1017.1
20260831190906 37 143 9.7 14.5 0.00 0.00 0.00 30 1016.8
20260831190406 37 140 8.0 9.7 0.00 0.00 0.00 30 1016.8
20260831185905 37 217 8.0 12.9 0.00 0.00 0.00 30 1017.2
20260831185401 38 198 4.8 11.3 0.00 0.00 0.00 29 1017.1
20260831184900 37 56 1.6 3.2 0.00 0.00 0.00 29 1017.0
20260831184355 38 230 6.4 9.7 0.00 0.00 0.00 29 1017.0
20260831183851 37 228 8.0 9.7 0.00 0.00 0.00 30 1017.2
20260831183350 37 213 8.0 14.5 0.00 0.00 0.00 30 1017.3
20260831182849 37 126 8.0 11.3 0.00 0.00 0.00 30 1017.2
20260831182344 37 140 12.9 14.5 0.00 0.00 0.00 29 1017.4
20260831181840 37 55 3.2 6.4 0.00 0.00 0.00 31 1017.4
20260831181335 37 26 1.6 1.6 0.00 0.00 0.00 32 1017.6
20260831180830 37 156 6.4 9.7 0.00 0.00 0.00 31 1017.5
20260831180325 37 129 11.3 14.5 0.00 0.00 0.00 30 1017.6
20260831175823 37 253 3.2 4.8 0.00 0.00 0.00 32 1017.8
20260831175320 37 325 1.6 1.6 0.00 0.00 0.00 33 1017.8
20260831174816 37 261 3.2 4.8 0.00 0.00 0.00 32 1017.6
20260831174312 37 172 6.4 9.7 0.00 0.00 0.00 32 1017.8
20260831173811 36 332 3.2 4.8 0.00 0.00 0.00 33 1017.9
20260831173304 36 262 14.5 16.1 0.00 0.00 0.00 32 1017.8
20260831172800 36 253 3.2 4.8 0.00 0.00 0.00 35 1017.9
20260831172255 36 190 6.4 9.7 0.00 0.00 0.00 35 1018.0
20260831171755 36 153 8.0 11.3 0.00 0.00 0.00 34 1018.2
20260831171253 36 235 9.7 11.3 0.00 0.00 0.00 35 1018.3
20260831170749 36 254 6.4 9.7 0.00 0.00 0.00 35 1018.5
20260831170245 35 290 6.4 11.3 0.00 0.00 0.00 37 1018.3
20260831165741 35 231 8.0 11.3 0.00 0.00 0.00 37 1018.5
20260831165237 35 307 4.8 11.3 0.00 0.00 0.00 38 1018.3
20260831164733 35 286 6.4 6.4 0.00 0.00 0.00 37 1018.4
20260831164229 35 318 9.7 11.3 0.00 0.00 0.00 37 1018.5
20260831163724 35 209 11.3 17.7 0.00 0.00 0.00 37 1018.5
20260831163220 35 162 9.7 12.9 0.00 0.00 0.00 38 1018.3
20260831162718 35 332 6.4 9.7 0.00 0.00 0.00 38 1018.4
20260831162217 35 304 3.2 3.2 0.00 0.00 0.00 39 1018.5
20260831161712 34 117 4.8 6.4 0.00 0.00 0.00 40 1018.7
20260831161209 34 197 6.4 9.7 0.00 0.00 0.00 40 1018.6
20260831160708 34 130 8.0 14.5 0.00 0.00 0.00 40 1018.6
20260831160204 33 24 3.2 4.8 0.00 0.00 0.00 41 1018.5
20260831155703 33 239 8.0 11.3 0.00 0.00 0.00 41 1018.7
20260831155159 33 153 9.7 14.5 0.00 0.00 0.00 42 1018.7
20260831154654 33 312 3.2 3.2 0.00 0.00 0.00 45 1018.7
20260831154150 33 220 9.7 14.5 0.00 0.00 0.00 44 1018.7
20260831153648 32 183 12.9 16.1 0.00 0.00 0.00 45 1018.6
20260831153145 33 203 9.7 12.9 0.00 0.00 0.00 44 1018.6
20260831152640 32 216 9.7 11.3 0.00 0.00 0.00 45 1018.4
20260831152137 32 237 6.4 6.4 0.00 0.00 0.00 46 1018.7
20260831151636 32 219 8.0 14.5 0.00 0.00 0.00 46 1018.5
20260831151131 32 176 6.4 9.7 0.00 0.00 0.00 47 1018.4
20260831150626 31 242 11.3 14.5 0.00 0.00 0.00 47 1018.5
20260831150122 31 201 11.3 14.5 0.00 0.00 0.00 47 1018.4
20260831145621 31 262 9.7 11.3 0.00 0.00 0.00 47 1018.4
20260831145118 31 214 11.3 14.5 0.00 0.00 0.00 48 1018.4
20260831144613 31 102 6.4 9.7 0.00 0.00 0.00 48 1018.6
20260831144109 31 259 6.4 6.4 0.00 0.00 0.00 48 1018.3
20260831143608 31 171 3.2 6.4 0.00 0.00 0.00 48 1018.5
20260831143104 31 229 4.8 4.8 0.00 0.00 0.00 49 1018.6
20260831142601 30 100 8.0 11.3 0.00 0.00 0.00 50 1018.4
20260831142056 30 56 3.2 4.8 0.00 0.00 0.00 51 1018.4
20260831141554 30 231 9.7 16.1 0.00 0.00 0.00 51 1018.3
20260831141050 30 220 6.4 9.7 0.00 0.00 0.00 52 1018.5
20260831140549 29 218 12.9 16.1 0.00 0.00 0.00 52 1018.4
20260831140049 29 113 8.0 11.3 0.00 0.00 0.00 53 1018.3
20260831135547 29 221 11.3 17.7 0.00 0.00 0.00 53 1018.2
20260831135043 28 326 1.6 3.2 0.00 0.00 0.00 54 1018.3
20260831134539 28 132 6.4 9.7 0.00 0.00 0.00 54 1018.2
20260831134039 28 103 6.4 6.4 0.00 0.00 0.00 54 1018.2
20260831133538 28 186 3.2 3.2 0.00 0.00 0.00 54 1018.2
20260831133033 28 73 6.4 6.4 0.00 0.00 0.00 55 1018.2
20260831132530 28 195 8.0 11.3 0.00 0.00 0.00 55 1018.1
20260831132029 27 194 4.8 4.8 0.00 0.00 0.00 55 1018.3
20260831131529 27 193 9.7 12.9 0.00 0.00 0.00 55 1018.2
20260831131026 27 66 3.2 3.2 0.00 0.00 0.00 56 1018.0
20260831130525 27 307 4.8 4.8 0.00 0.00 0.00 56 1017.9
20260831130021 27 234 4.8 6.4 0.00 0.00 0.00 56 1018.0
20260831125514 27 197 4.8 4.8 0.00 0.00 0.00 56 1017.9
20260831125010 27 183 4.8 9.7 0.00 0.00 0.00 56 1017.6
20260831124507 27 0 4.8 6.4 0.00 0.00 0.00 56 1017.8
20260831124002 26 179 6.4 9.7 0.00 0.00 0.00 57 1017.6
20260831123501 26 145 3.2 4.8 0.00 0.00 0.00 57 1017.6
20260831122955 26 163 3.2 4.8 0.00 0.00 0.00 57 1017.3
20260831122451 26 100 3.2 3.2 0.00 0.00 0.00 57 1017.4
20260831121946 26 174 6.4 6.4 0.00 0.00 0.00 57 1017.4
20260831121441 26 207 6.4 6.4 0.00 0.00 0.00 58 1017.0
20260831120937 26 81 6.4 6.4 0.00 0.00 0.00 57 1017.0
20260831120431 26 130 3.2 3.2 0.00 0.00 0.00 57 1017.1
20260831115931 26 134 6.4 9.7 0.00 0.00 0.00 57 1016.7
20260831115427 26 198 3.2 6.4 0.00 0.00 0.00 57 1017.1
20260831114927 26 180 6.4 9.7 0.00 0.00 0.00 57 1016.7
20260831114426 26 187 6.4 11.3 0.00 0.00 0.00 57 1016.8
20260831113922 26 154 6.4 9.7 0.00 0.00 0.00 57 1016.8
20260831113422 26 153 3.2 3.2 0.00 0.00 0.00 56 1016.6
20260831112917 26 167 4.8 6.4 0.00 0.00 0.00 56 1016.5
20260831112417 26 282 3.2 3.2 0.00 0.00 0.00 56 1016.7
20260831111912 26 236 3.2 4.8 0.00 0.00 0.00 56 1016.6
20260831111408 26 45 4.8 6.4 0.00 0.00 0.00 56 1016.5
20260831110904 26 52 3.2 4.8 0.00 0.00 0.00 55 1016.4
20260831110403 26 156 4.8 4.8 0.00 0.00 0.00 55 1016.6
20260831105902 26 70 1.6 3.2 0.00 0.00 0.00 55 1016.5
20260831105358 26 183 6.4 6.4 0.00 0.00 0.00 55 1016.2
20260831104853 26 182 9.7 12.9 0.00 0.00 0.00 55 1016.4
20260831104349 26 121 6.4 9.7 0.00 0.00 0.00 55 1016.2
20260831103844 26 208 6.4 6.4 0.00 0.00 0.00 55 1016.3
20260831103339 26 138 6.4 9.7 0.00 0.00 0.00 55 1016.3
20260831102834 26 189 4.8 6.4 0.00 0.00 0.00 54 1016.4
20260831102329 26 142 1.6 3.2 0.00 0.00 0.00 54 1016.3
20260831101825 26 74 3.2 3.2 0.00 0.00 0.00 54 1016.3
20260831101320 26 186 8.0 11.3 0.00 0.00 0.00 54 1016.1
20260831100816 26 162 8.0 12.9 0.00 0.00 0.00 53 1016.2
20260831100312 26 331 3.2 4.8 0.00 0.00 0.00 53 1016.3
20260831095811 26 199 1.6 3.2 0.00 0.00 0.00 53 1016.1
20260831095306 26 202 9.7 12.9 0.00 0.00 0.00 52 1016.0
20260831094801 26 231 4.8 6.4 0.00 0.00 0.00 52 1016.1
20260831094256 27 108 3.2 3.2 0.00 0.00 0.00 52 1015.9
20260831093752 27 95 4.8 4.8 0.00 0.00 0.00 52 1016.0
20260831093252 27 146 6.4 6.4 0.00 0.00 0.00 51 1016.0
20260831092749 27 178 3.2 3.2 0.00 0.00 0.00 51 1016.0
20260831092244 27 81 4.8 6.4 0.00 0.00 0.00 51 1016.0
20260831091743 27 28 3.2 3.2 0.00 0.00 0.00 50 1016.0
20260831091240 27 179 9.7 12.9 0.00 0.00 0.00 50 1016.0
20260831090735 27 131 3.2 4.8 0.00 0.00 0.00 50 1016.0
20260831090231 27 117 3.2 4.8 0.00 0.00 0.00 50 1015.9
20260831085727 27 127 3.2 3.2 0.00 0.00 0.00 49 1015.8
20260831085221 27 174 3.2 4.8 0.00 0.00 0.00 49 1015.9
20260831084716 27 68 4.8 6.4 0.00 0.00 0.00 49 1015.9
20260831084213 27 85 6.4 11.3 0.00 0.00 0.00 48 1015.6
20260831083708 27 243 6.4 9.7 0.00 0.00 0.00 48 1015.7
20260831083204 27 158 6.4 6.4 0.00 0.00 0.00 48 1016.0
20260831082702 27 249 4.8 4.8 0.00 0.00 0.00 48 1015.8
20260831082158 27 99 6.4 9.7 0.00 0.00 0.00 47 1015.6
20260831081653 27 201 3.2 4.8 0.00 0.00 0.00 47 1015.8
20260831081149 27 135 6.4 12.9 0.00 0.00 0.00 47 1015.6
20260831080644 28 153 6.4 9.7 0.00 0.00 0.00 47 1015.5
20260831080139 28 134 4.8 6.4 0.00 0.00 0.00 47 1015.5
20260831075635 28 96 3.2 4.8 0.00 0.00 0.00 47 1015.6
20260831075130 28 261 4.8 6.4 0.00 0.00 0.00 47 1015.5
20260831074629 28 164 4.8 4.8 0.00 0.00 0.00 48 1015.5
20260831074124 28 283 3.2 3.2 0.00 0.00 0.00 48 1015.4
20260831073624 28 165 12.9 14.5 0.00 0.00 0.00 48 1015.5
20260831073124 27 147 8.0 9.7 0.00 0.00 0.00 48 1015.5
20260831072620 27 238 4.8 4.8 0.00 0.00 0.00 49 1015.5
20260831072116 28 125 3.2 4.8 0.00 0.00 0.00 49 1015.4
20260831071614 28 168 8.0 12.9 0.00 0.00 0.00 49 1015.4
20260831071110 28 156 9.7 11.3 0.00 0.00 0.00 48 1015.4
20260831070609 28 147 12.9 16.1 0.00 0.00 0.00 48 1015.3
20260831070104 28 166 6.4 11.3 0.00 0.00 0.00 48 1015.4
20260831065602 28 90 3.2 4.8 0.00 0.00 0.00 49 1015.6
20260831065056 28 207 3.2 6.4 0.00 0.00 0.00 49 1015.6
20260831064551 28 130 6.4 9.7 0.00 0.00 0.00 49 1015.6
20260831064047 28 172 8.0 9.7 0.00 0.00 0.00 49 1015.5
20260831063542 28 135 4.8 9.7 0.00 0.00 0.00 49 1015.4
20260831063037 28 107 9.7 11.3 0.00 0.00 0.00 49 1015.4
20260831062532 28 177 9.7 12.9 0.00 0.00 0.00 50 1015.4
20260831062031 28 135 11.3 16.1 0.00 0.00 0.00 50 1015.4
20260831061524 28 183 8.0 11.3 0.00 0.00 0.00 50 1015.5
20260831061020 28 126 3.2 3.2 0.00 0.00 0.00 50 1015.5
20260831060520 28 153 9.7 11.3 0.00 0.00 0.00 50 1015.4
20260831060016 28 131 3.2 4.8 0.00 0.00 0.00 50 1015.6
20260831055509 28 108 3.2 4.8 0.00 0.00 0.00 50 1015.7
20260831055005 28 136 6.4 9.7 0.00 0.00 0.00 50 1015.5
20260831054459 28 107 8.0 14.5 0.00 0.00 0.00 50 1015.7
20260831053958 28 104 6.4 6.4 0.00 0.00 0.00 50 1015.6
20260831053456 28 145 8.0 9.7 0.00 0.00 0.00 50 1015.6
20260831052952 28 178 3.2 4.8 0.00 0.00 0.00 49 1015.6
20260831052451 28 68 6.4 9.7 0.00 0.00 0.00 49 1015.7
20260831051949 28 199 6.4 9.7 0.00 0.00 0.00 49 1015.6
20260831051448 28 122 6.4 11.3 0.00 0.00 0.00 48 1015.5
20260831050943 28 124 4.8 6.4 0.00 0.00 0.00 48 1015.6
20260831050443 28 75 3.2 4.8 0.00 0.00 0.00 48 1015.4
20260831045941 28 198 9.7 12.9 0.00 0.00 0.00 48 1015.4
20260831045441 29 166 9.7 12.9 0.00 0.00 0.00 47 1015.5
20260831044936 29 146 6.4 6.4 0.00 0.00 0.00 47 1015.6
20260831044431 29 58 6.4 11.3 0.00 0.00 0.00 46 1015.2
20260831043927 29 103 4.8 4.8 0.00 0.00 0.00 46 1015.3
20260831043426 30 204 6.4 6.4 0.00 0.00 0.00 45 1015.3
20260831042922 30 166 6.4 6.4 0.00 0.00 0.00 45 1015.3
20260831042421 30 138 8.0 11.3 0.00 0.00 0.00 44 1015.3
20260831041916 30 105 6.4 9.7 0.00 0.00 0.00 44 1015.2
20260831041416 30 144 3.2 4.8 0.00 0.00 0.00 43 1015.3
20260831040912 30 201 9.7 11.3 0.00 0.00 0.00 43 1015.2
20260831040412 30 50 3.2 4.8 0.00 0.00 0.00 42 1015.2
20260831035909 30 138 4.8 4.8 0.00 0.00 0.00 42 1015.1
20260831035409 30 116 9.7 11.3 0.00 0.00 0.00 42 1015.2
20260831034908 30 37 1.6 3.2 0.00 0.00 0.00 42 1015.1
20260831034404 30 63 1.6 1.6 0.00 0.00 0.00 42 1015.1
20260831033859 30 136 4.8 6.4 0.00 0.00 0.00 42 1015.0
20260831033354 30 19 0.0 0.0 0.00 0.00 0.00 42 1014.7
20260831032850 30 36 1.6 1.6 0.00 0.00 0.00 42 1015.0
20260831032349 30 187 3.2 6.4 0.00 0.00 0.00 42 1014.9
20260831031845 31 54 3.2 4.8 0.00 0.00 0.00 42 1014.6
20260831031344 31 28 1.6 1.6 0.00 0.00 0.00 41 1014.8
20260831030839 31 146 3.2 3.2 0.00 0.00 0.00 41 1014.7
20260831030338 31 22 0.0 1.6 0.00 0.00 0.00 41 1014.9
20260831025837 31 91 3.2 3.2 0.00 0.00 0.00 40 1014.7
20260831025332 31 188 3.2 4.8 0.00 0.00 0.00 40 1014.7
20260831024827 31 32 1.6 1.6 0.00 0.00 0.00 40 1014.7
20260831024326 31 44 1.6 3.2 0.00 0.00 0.00 40 1014.6
20260831023825 31 28 1.6 3.2 0.00 0.00 0.00 40 1014.5
20260831023324 31 46 1.6 3.2 0.00 0.00 0.00 40 1014.4
20260831022820 32 47 1.6 1.6 0.00 0.00 0.00 40 1014.1
20260831022319 32 38 1.6 1.6 0.00 0.00 0.00 40 1014.4
20260831021814 32 127 3.2 6.4 0.00 0.00 0.00 39 1014.4
20260831021313 32 120 3.2 4.8 0.00 0.00 0.00 39 1014.2
20260831020809 32 81 1.6 3.2 0.00 0.00 0.00 39 1014.1
20260831020308 32 31 3.2 4.8 0.00 0.00 0.00 39 1014.2
20260831015804 32 345 0.0 1.6 0.00 0.00 0.00 39 1014.1
20260831015300 32 64 1.6 1.6 0.00 0.00 0.00 39 1014.0